Regional Weather Roundup
Issued by NWS Mt. Holly, NJ

Home | Current Version | Previous Version | Text Only | Print | Product List | Glossary On
Versions: 1 2 3 4 5 6 7 8 9 10 11 12 13 14 15 16 17 18 19 20 21 22 23 24 25 26 27 28 29 30 31 32 33 34 35 36 37 38 39 40 41 42 43 44 45 46 47 48 49 50
000
ASUS41 KPHI 271910
RWRPHI

REGIONAL WEATHER ROUNDUP
NATIONAL WEATHER SERVICE MOUNT HOLLY NJ
200 PM EST SAT DEC 27 2014

NOTE:  "FAIR" INDICATES FEW OR NO CLOUDS BELOW 12,000 FEET WITH NO
SIGNIFICANT WEATHER AND/OR OBSTRUCTIONS TO VISIBILITY.

 * = STATION DOES NOT REPORT PRECIPITATION (E.G. RAIN, SNOW, ETC.)
        OR FOG.

NJZ015>026-272000-
SOUTHERN NEW JERSEY

CITY           SKY/WX    TMP DP  RH WIND       PRES   REMARKS
POMONA         SUNNY     59  30  33 CALM      30.20F
RIO GRANDE*    SUNNY     55  36  47 CALM        N/A
MILLVILLE      SUNNY     57  31  37 NE5       30.19F
WRIGHTSTOWN    SUNNY     56  32  40 NW6       30.17F
MOUNT HOLLY    SUNNY     55  29  36 SW5       30.19F
TRENTON        SUNNY     56  30  37 SW6       30.18F

$$
NJZ001>014-272000-
NORTHERN NEW JERSEY

CITY           SKY/WX    TMP DP  RH WIND       PRES   REMARKS
SUSSEX         SUNNY     53  35  50 S8        30.15F
ANDOVER*       NOT AVBL
MORRISTOWN     SUNNY     57  36  44 W3        30.18F
NEWARK         MOSUNNY   56  34  43 S7        30.18F
TETERBORO      SUNNY     54  34  46 W7        30.17F
CALDWELL       SUNNY     54  33  45 VRB3      30.18F
SOMERVILLE     SUNNY     57  32  38 VRB3      30.16F
ALLAIRE*       SUNNY     55  34  44 W6        30.19F
TOMS RIVER*    SUNNY     55  30  38 W8        30.21F

$$
PAZ043-044-047-054-055-060>062-066>071-272000-
EASTERN PENNSYLVANIA

CITY           SKY/WX    TMP DP  RH WIND       PRES   REMARKS
PHILADELPHIA   MOSUNNY   56  32  40 CALM      30.20F
NORTH PHILA    SUNNY     57  31  37 CALM      30.20F
BLUE BELL      SUNNY     57  32  38 NW3       30.18F
DOYLESTOWN     SUNNY     54  30  40 SW3       30.17F
QUAKERTOWN*    SUNNY     55  32  41 W5        30.18F
POTTSTOWN      SUNNY     55  30  38 CALM      30.18F
LANCASTER      SUNNY     54  32  43 SE5       30.17F
COATESVILLE    SUNNY     55  32  41 W3        30.18F
READING        SUNNY     55  32  41 CALM      30.16F
ALLENTOWN      SUNNY     56  31  38 S8        30.16F
MOUNT POCONO   SUNNY     48  33  56 SW7       30.13F
HAZLETON       SUNNY     52  34  50 CALM      30.16F
WILKES BARRE   SUNNY     52  32  46 W9        30.14F

$$
DEZALL-MDZ008-012-015-019-020-272000-
DELAWARE AND EASTERN MARYLAND

CITY           SKY/WX    TMP DP  RH WIND       PRES   REMARKS
WILMINGTON     SUNNY     56  33  42 CALM      30.20F
DOVER          SUNNY     52  42  67 E7        30.18F
GEORGETOWN     SUNNY     60  35  39 CALM      30.19F
PATUXENT       PTSUNNY   51  37  58 E5        30.21F
OCEAN CITY     SUNNY     52  42  69 S6        30.20F
WALLOPS ISLAND SUNNY     53  43  68 S12       30.21F
CAMBRIDGE      SUNNY     57  37  47 NW3       30.20S
SALISBURY      SUNNY     64  30  27 SW6       30.19F

$$
PAZ001-021-NYZ056-072-MDZ011-DCZ001-272000-
OTHER NEARBY LOCATIONS

CITY           SKY/WX    TMP DP  RH WIND       PRES   REMARKS
HARRISBURG     MOSUNNY   53  34  48 SE3       30.16F
STATE COLLEGE  MOSUNNY   54  34  47 SW6       30.13F
WILLIAMSPORT   SUNNY     50  33  52 CALM      30.15F
BINGHAMTON     MOSUNNY   48  35  60 S8        30.10F
NEW YORK CITY  SUNNY     55  32  41 CALM      30.20F
BALTIMORE      PTSUNNY   57  30  35 E3        30.19F
WASHINGTON DC  CLOUDY    57  36  45 CALM      30.21F

$$


USA.gov is the U.S. government's official web portal to all federal, state and local government web resources and services.